DEDLW EDLW-EDLW

Flight info

Callsign DEDLW
Flight time 0h 16m
Altitude 1500
Route VFR TOUCH AND GO TRAINNING
Aircraft SR22/L-V/N

Departure

Time 2026-05-01 14:25
Airport Dortmund Airport (EDLW)

Arrival

Time 2026-05-01 14:42
Airport Dortmund Airport (EDLW)
Time Latitude Longitude Altitude Speed Heading
2026-05-01 14:14 51.51254 7.60556 458 ft 0 kts 103°
2026-05-01 14:20 51.51347 7.60644 437 ft 14 kts 355°
2026-05-01 14:20 51.51416 7.60792 434 ft 21 kts 59°
2026-05-01 14:21 51.51482 7.60975 425 ft 19 kts 60°
2026-05-01 14:21 51.51567 7.60986 426 ft 23 kts 267°
2026-05-01 14:21 51.51541 7.60797 419 ft 16 kts 253°
2026-05-01 14:22 51.51526 7.60691 414 ft 0 kts 270°
2026-05-01 14:23 51.51543 7.60637 416 ft 12 kts 315°
2026-05-01 14:23 51.51630 7.60654 421 ft 16 kts 59°
2026-05-01 14:23 51.51665 7.60749 419 ft 4 kts 62°
2026-05-01 14:23 51.51679 7.60788 418 ft 0 kts 61°
2026-05-01 14:24 51.51680 7.60790 418 ft 1 kts 63°
2026-05-01 14:24 51.51761 7.61036 417 ft 61 kts 64°
2026-05-01 14:24 51.52041 7.61830 529 ft 91 kts 65°
2026-05-01 14:24 51.52415 7.62759 699 ft 109 kts 62°
2026-05-01 14:25 51.52828 7.63832 843 ft 122 kts 59°
2026-05-01 14:25 51.53288 7.64415 946 ft 134 kts 33°
2026-05-01 14:25 51.54213 7.64566 998 ft 140 kts 350°
2026-05-01 14:25 51.55074 7.63822 1103 ft 142 kts 327°
2026-05-01 14:26 51.56059 7.62491 1246 ft 143 kts 296°
2026-05-01 14:26 51.55996 7.60045 1232 ft 131 kts 232°
2026-05-01 14:26 51.55531 7.58811 1278 ft 126 kts 231°
2026-05-01 14:27 51.55071 7.57628 1271 ft 125 kts 231°
2026-05-01 14:27 51.54615 7.56438 1245 ft 125 kts 230°
2026-05-01 14:27 51.54170 7.55265 1301 ft 123 kts 231°
2026-05-01 14:28 51.53114 7.53222 1366 ft 111 kts 195°
2026-05-01 14:28 51.52438 7.53366 1319 ft 99 kts 147°
2026-05-01 14:28 51.51939 7.53905 1272 ft 78 kts 145°
2026-05-01 14:28 51.51522 7.54348 1232 ft 73 kts 142°
2026-05-01 14:29 51.51087 7.54877 1269 ft 85 kts 137°
2026-05-01 14:29 51.50778 7.55692 1238 ft 86 kts 118°
2026-05-01 14:30 51.50997 7.58726 851 ft 91 kts 77°
2026-05-01 14:30 51.51259 7.59600 641 ft 84 kts 67°
2026-05-01 14:30 51.51541 7.60390 479 ft 79 kts 69°
2026-05-01 14:31 51.52046 7.61859 538 ft 90 kts 66°
2026-05-01 14:31 51.52397 7.62722 728 ft 102 kts 62°
2026-05-01 14:31 51.52796 7.63752 831 ft 112 kts 64°
2026-05-01 14:31 51.53465 7.64468 954 ft 127 kts 16°
2026-05-01 14:32 51.54337 7.64094 1013 ft 136 kts 328°
2026-05-01 14:32 51.55111 7.63208 1101 ft 137 kts 325°
2026-05-01 14:32 51.55850 7.62228 1204 ft 139 kts 311°
2026-05-01 14:32 51.56185 7.60804 1246 ft 138 kts 261°
2026-05-01 14:33 51.55813 7.59441 1258 ft 133 kts 232°
2026-05-01 14:33 51.55310 7.58220 1304 ft 128 kts 227°
2026-05-01 14:33 51.54748 7.57094 1257 ft 130 kts 224°
2026-05-01 14:33 51.54178 7.55981 1315 ft 128 kts 225°
2026-05-01 14:34 51.53631 7.54873 1350 ft 125 kts 217°
2026-05-01 14:34 51.52862 7.54494 1312 ft 115 kts 165°
2026-05-01 14:34 51.52204 7.55099 1264 ft 105 kts 147°
2026-05-01 14:34 51.51607 7.55719 1169 ft 93 kts 149°
2026-05-01 14:35 51.51114 7.56287 1066 ft 86 kts 134°
2026-05-01 14:35 51.50946 7.57156 1025 ft 83 kts 95°
2026-05-01 14:35 51.51032 7.58082 997 ft 84 kts 84°
2026-05-01 14:35 51.51158 7.58979 820 ft 81 kts 85°
2026-05-01 14:36 51.51355 7.59823 616 ft 83 kts 72°
2026-05-01 14:36 51.51630 7.60632 449 ft 81 kts 68°
2026-05-01 14:36 51.51882 7.61388 415 ft 87 kts 66°
2026-05-01 14:36 51.52225 7.62215 650 ft 94 kts 64°
2026-05-01 14:37 51.52551 7.63175 787 ft 103 kts 70°
2026-05-01 14:37 51.53085 7.64026 972 ft 119 kts 24°
2026-05-01 14:37 51.53952 7.64125 959 ft 129 kts
2026-05-01 14:37 51.54843 7.63781 1002 ft 134 kts 344°
2026-05-01 14:38 51.55636 7.63067 1127 ft 133 kts 307°
2026-05-01 14:38 51.55866 7.61686 1192 ft 127 kts 257°
2026-05-01 14:38 51.55503 7.60437 1157 ft 123 kts 229°
2026-05-01 14:38 51.55072 7.59262 1202 ft 122 kts 237°
2026-05-01 14:39 51.54689 7.58071 1159 ft 123 kts 235°
2026-05-01 14:39 51.54275 7.56847 1093 ft 127 kts 233°
2026-05-01 14:39 51.53825 7.55675 1151 ft 118 kts 218°
2026-05-01 14:39 51.53212 7.55230 1101 ft 85 kts 168°
2026-05-01 14:40 51.52684 7.55671 1096 ft 86 kts 140°
2026-05-01 14:40 51.52229 7.56306 1137 ft 92 kts 133°
2026-05-01 14:40 51.51835 7.57119 1126 ft 94 kts 131°
2026-05-01 14:40 51.51412 7.57965 1018 ft 101 kts 121°
2026-05-01 14:41 51.51244 7.58998 809 ft 90 kts 92°
2026-05-01 14:41 51.51396 7.59907 578 ft 80 kts 73°
2026-05-01 14:41 51.51647 7.60675 451 ft 75 kts 68°
2026-05-01 14:41 51.51868 7.61337 412 ft 57 kts 62°
2026-05-01 14:42 51.52035 7.61808 411 ft 41 kts 63°
2026-05-01 14:42 51.52069 7.62013 410 ft 7 kts 139°
2026-05-01 14:42 51.52030 7.62046 409 ft 5 kts 155°